Location: Hradec Kralove
(50.2170°N, 15.8330°E)
Time: 18:05:47
(UTC+01:00)

Explorer 11/Cluster Stage 4 - Pass Details

Date: 02 February 2023
Orbit: 466 x 1241 km, 28.8° (Epoch: 20 March)

Event Time Altitude Azimuth Distance (km) Brightness Sun altitude
Rises 06:05:21 0° 219° (SW) 4,135 10.0 -13.7°
Reaches altitude 10° 06:10:14 10° 194° (SSW) 3,200 9.7 -12.9°
Maximum altitude 06:13:30 13° 170° (S) 2,966 9.8 -12.4°
Drops below altitude 10° 06:16:45 10° 146° (SSE) 3,154 10.4 -11.9°
Sets 06:21:29 0° 121° (ESE) 4,023 11.8 -11.1°
